[TLELIST] Archives

 

[list_settings.list_name] Current TLEs

August 17th 2010 PST

HST 1 20580U 90037B 10229.15322882 .00000473 00000-0 23331-4 0 6288 2 20580 028.4680 201.8498 0003606 131.6071 228.4830 15.01016711913925 ISS (ZARYA) 1 25544U 98067A 10229.35787613 .00011106 00000-0 88102-4 0 7219 2 25544 051.6463 277.5734 0006018 235.6964 215.2583 15.71853483673098 CXO 1 25867U 99040B 10229.87500000 -.00000713 00000-0 10000-3 0 5031 2 25867 067.4467 050.3194 8259461 275.3697 357.8043 00.37807776 6629 ____________________________________________________________________ These 2-Line ...Continue Reading

[list_settings.list_name] Current TLEs

August 16th 2010 PST

HST 1 20580U 90037B 10228.15586894 .00000475 00000-0 23527-4 0 6270 2 20580 028.4684 208.3608 0003648 121.5679 238.5274 15.01016187913776 ISS (ZARYA) 1 25544U 98067A 10228.46697922 .00010665 00000-0 84876-4 0 7160 2 25544 051.6461 282.1328 0006069 231.0764 215.2186 15.71830283672957 CXO 1 25867U 99040B 10227.25000000 -.00000617 00000-0 10000-3 0 5028 2 25867 067.4341 050.4513 8252640 275.3559 000.4937 00.37806683 6613 ____________________________________________________________________ These 2-Line ...Continue Reading

[list_settings.list_name] Current TLEs

August 15th 2010 PST

HST 1 20580U 90037B 10226.42710912 .00000524 00000-0 27229-4 0 6265 2 20580 028.4687 219.6591 0003480 104.6026 255.4857 15.01015724913510 ISS (ZARYA) 1 25544U 98067A 10227.32301848 .00012031 00000-0 95219-4 0 7109 2 25544 051.6466 287.9883 0006097 225.1157 223.6839 15.71809256672776 CXO 1 25867U 99040B 10227.25000000 -.00000617 00000-0 10000-3 0 5028 2 25867 067.4341 050.4513 8252640 275.3559 000.4937 00.37806683 6613 ____________________________________________________________________ These 2-Line ...Continue Reading

[list_settings.list_name] Current TLEs

August 14th 2010 PST

HST 1 20580U 90037B 10223.16905948 .00000524 00000-0 27229-4 0 6257 2 20580 028.4692 240.9217 0003329 071.6612 288.4341 15.01013541913029 ISS (ZARYA) 1 25544U 98067A 10226.50362316 .00013319 00000-0 10496-3 0 7052 2 25544 051.6469 292.1804 0006351 220.9979 268.1686 15.71793632672648 CXO 1 25867U 99040B 10227.25000000 -.00000617 00000-0 10000-3 0 5028 2 25867 067.4341 050.4513 8252640 275.3559 000.4937 00.37806683 6613 ____________________________________________________________________ These 2-Line ...Continue Reading

[list_settings.list_name] Current TLEs

August 13th 2010 PST

HST 1 20580U 90037B 10223.16905948 .00000524 00000-0 27229-4 0 6257 2 20580 028.4692 240.9217 0003329 071.6612 288.4341 15.01013541913029 ISS (ZARYA) 1 25544U 98067A 10225.48465565 .00013954 00000-0 10986-3 0 6999 2 25544 051.6471 297.3953 0006360 217.1486 262.4152 15.71768097672488 CXO 1 25867U 99040B 10227.25000000 -.00000617 00000-0 10000-3 0 5017 2 25867 067.4341 050.4513 8252614 275.3561 000.4919 00.37807264 6613 ____________________________________________________________________ These 2-Line ...Continue Reading

[list_settings.list_name] Current TLEs

August 12th 2010 PST

HST 1 20580U 90037B 10223.16905948 .00000524 00000-0 27229-4 0 6257 2 20580 028.4692 240.9217 0003329 071.6612 288.4341 15.01013541913029 ISS (ZARYA) 1 25544U 98067A 10224.44627161 .00014639 00000-0 11045-3 0 6949 2 25544 051.6452 302.7115 0006655 214.0721 146.0377 15.71737682 76551 CXO 1 25867U 99040B 10227.25000000 -.00000617 00000-0 10000-3 0 5017 2 25867 067.4341 050.4513 8252614 275.3561 000.4919 00.37807264 6613 ____________________________________________________________________ These 2-Line ...Continue Reading

[list_settings.list_name] Current TLEs

August 11th 2010 PST

HST 1 20580U 90037B 10223.16905948 .00000524 00000-0 27229-4 0 6257 2 20580 028.4692 240.9217 0003329 071.6612 288.4341 15.01013541913029 ISS (ZARYA) 1 25544U 98067A 10223.52840278 .00013984 00000-0 11034-3 0 6897 2 25544 051.6469 307.4053 0006501 210.1171 353.0070 15.71711128672175 CXO 1 25867U 99040B 10221.95833333 -.00000385 00000-0 10000-3 0 5002 2 25867 067.3927 050.7131 8243422 275.3762 359.9758 00.37808843 6595 ____________________________________________________________________ These 2-Line ...Continue Reading

[list_settings.list_name] Current TLEs

August 10th 2010 PST

HST 1 20580U 90037B 10221.17433166 .00000529 00000-0 27623-4 0 6246 2 20580 028.4696 253.9430 0003342 049.5575 310.5308 15.01012262912726 ISS (ZARYA) 1 25544U 98067A 10222.49438380 .00015114 00000-0 11899-3 0 6840 2 25544 051.6469 312.6964 0006495 206.3499 262.2576 15.71685032672015 CXO 1 25867U 99040B 10221.95833333 -.00000385 00000-0 10000-3 0 5002 2 25867 067.3927 050.7131 8243422 275.3762 359.9758 00.37808843 6595 ____________________________________________________________________ These 2-Line ...Continue Reading

[list_settings.list_name] Current TLEs

August 9th 2010 PST

HST 1 20580U 90037B 10221.17433166 .00000529 00000-0 27623-4 0 6246 2 20580 028.4696 253.9430 0003342 049.5575 310.5308 15.01012262912726 ISS (ZARYA) 1 25544U 98067A 10221.53416309 .00016068 00000-0 12632-3 0 6767 2 25544 051.6467 317.6093 0006725 201.8560 230.1698 15.71658873671860 CXO 1 25867U 99040B 10221.95833333 -.00000385 00000-0 10000-3 0 5002 2 25867 067.3927 050.7131 8243422 275.3762 359.9758 00.37808843 6595 ____________________________________________________________________ These 2-Line ...Continue Reading

[list_settings.list_name] Current TLEs

August 8th 2010 PST

HST 1 20580U 90037B 10219.57854811 .00000528 00000-0 27606-4 0 6230 2 20580 028.4696 264.3583 0003345 032.5800 327.5031 15.01011108912489 ISS (ZARYA) 1 25544U 98067A 10220.52309067 .00018757 00000-0 14678-3 0 6700 2 25544 051.6472 322.7796 0006698 197.8146 269.8293 15.71635439671702 CXO 1 25867U 99040B 10219.33333333 -.00000466 00000-0 10000-3 0 4993 2 25867 067.3826 050.9320 8236590 275.3518 002.5662 00.37799183 6582 ____________________________________________________________________ These 2-Line ...Continue Reading
  • This mailing list is a public mailing list - anyone may join or leave, at any time.
  • This mailing list is announce-only.

International Space Station (ISS) / Hubble Space Telescope (HST) / Chandra X-Ray Observatory Orbital Data via EMAIL

Privacy Policy:

Private list